TimeCST,TemperatureF,Dew PointF,Humidity,Sea Level PressureIn,VisibilityMPH,Wind Direction,Wind SpeedMPH,Gust SpeedMPH,PrecipitationIn,Events,Conditions,WindDirDegrees,DateUTC
12:12 AM,50.4,33.4,52,30.10,10.0,South,12.7,-,N/A,,Overcast,170,2012-11-19 06:12:00
12:32 AM,50.2,33.4,53,30.10,10.0,South,11.5,-,N/A,,Overcast,170,2012-11-19 06:32:00
12:52 AM,49.6,33.1,53,30.09,10.0,South,12.7,18.4,N/A,,Mostly Cloudy,180,2012-11-19 06:52:00
1:12 AM,50.0,33.3,53,30.09,10.0,South,11.5,-,N/A,,Overcast,180,2012-11-19 07:12:00
1:32 AM,50.0,33.1,52,30.08,10.0,South,12.7,17.3,N/A,,Overcast,170,2012-11-19 07:32:00
1:52 AM,50.2,32.9,52,30.08,10.0,South,10.4,18.4,N/A,,Mostly Cloudy,170,2012-11-19 07:52:00
2:12 AM,50.4,32.7,51,30.08,10.0,South,10.4,-,N/A,,Overcast,180,2012-11-19 08:12:00
2:32 AM,50.0,32.9,52,30.08,10.0,South,8.1,-,N/A,,Overcast,180,2012-11-19 08:32:00
2:53 AM,50.4,32.7,51,30.08,10.0,South,10.4,-,N/A,,Overcast,190,2012-11-19 08:53:00
3:12 AM,50.5,32.7,51,30.07,10.0,South,12.7,17.3,N/A,,Overcast,180,2012-11-19 09:12:00
3:32 AM,50.9,33.1,51,30.06,10.0,South,11.5,18.4,N/A,,Overcast,170,2012-11-19 09:32:00
3:53 AM,51.1,33.3,51,30.06,10.0,South,10.4,18.4,N/A,,Overcast,180,2012-11-19 09:53:00
4:12 AM,51.1,33.8,52,30.06,10.0,South,11.5,-,N/A,,Overcast,180,2012-11-19 10:12:00
4:32 AM,51.3,34.3,52,30.06,10.0,South,11.5,-,N/A,,Overcast,180,2012-11-19 10:32:00
4:52 AM,51.1,35.2,55,30.06,10.0,South,12.7,20.7,N/A,,Overcast,180,2012-11-19 10:52:00
5:12 AM,49.8,35.6,58,30.06,10.0,South,9.2,-,N/A,,Mostly Cloudy,180,2012-11-19 11:12:00
5:32 AM,48.9,36.1,61,30.05,10.0,South,12.7,-,N/A,,Scattered Clouds,170,2012-11-19 11:32:00
6:12 AM,49.1,37.6,64,30.05,10.0,South,12.7,19.6,N/A,,Mostly Cloudy,180,2012-11-19 12:12:00
6:32 AM,49.3,38.5,66,30.05,10.0,South,11.5,18.4,N/A,,Overcast,180,2012-11-19 12:32:00
6:52 AM,48.7,39.0,69,30.04,10.0,South,11.5,18.4,N/A,,Mostly Cloudy,170,2012-11-19 12:52:00
7:32 AM,48.4,39.2,71,30.04,10.0,South,8.1,-,N/A,,Scattered Clouds,180,2012-11-19 13:32:00
7:52 AM,49.3,39.6,69,30.05,10.0,South,8.1,-,N/A,,Mostly Cloudy,180,2012-11-19 13:52:00
8:12 AM,49.5,39.4,68,30.05,10.0,South,10.4,-,N/A,,Mostly Cloudy,170,2012-11-19 14:12:00
8:32 AM,50.0,39.4,67,30.05,10.0,South,8.1,-,N/A,,Overcast,180,2012-11-19 14:32:00
8:52 AM,50.4,39.4,66,30.04,10.0,South,9.2,-,N/A,,Overcast,170,2012-11-19 14:52:00
9:12 AM,50.9,39.2,64,30.04,10.0,South,10.4,-,N/A,,Scattered Clouds,170,2012-11-19 15:12:00
9:32 AM,52.3,38.8,60,30.04,10.0,South,9.2,-,N/A,,Clear,180,2012-11-19 15:32:00
9:52 AM,53.4,38.5,57,30.04,10.0,South,12.7,-,N/A,,Clear,180,2012-11-19 15:52:00
10:12 AM,54.5,38.5,55,30.04,10.0,South,9.2,18.4,N/A,,Clear,180,2012-11-19 16:12:00
10:32 AM,55.4,37.4,51,30.04,10.0,South,10.4,-,N/A,,Scattered Clouds,190,2012-11-19 16:32:00
10:52 AM,55.6,37.4,50,30.04,10.0,South,10.4,-,N/A,,Mostly Cloudy,170,2012-11-19 16:52:00
11:12 AM,58.1,37.2,46,30.03,10.0,South,10.4,16.1,N/A,,Mostly Cloudy,190,2012-11-19 17:12:00
11:32 AM,57.9,36.9,45,30.02,10.0,South,9.2,-,N/A,,Mostly Cloudy,190,2012-11-19 17:32:00
11:52 AM,57.6,37.2,47,30.02,10.0,South,6.9,-,N/A,,Scattered Clouds,190,2012-11-19 17:52:00
12:13 PM,58.5,37.0,45,30.02,10.0,South,9.2,-,N/A,,Mostly Cloudy,190,2012-11-19 18:13:00
12:32 PM,59.0,37.2,44,30.02,10.0,South,9.2,-,N/A,,Mostly Cloudy,180,2012-11-19 18:32:00
12:52 PM,58.8,37.6,45,30.01,10.0,SSE,10.4,-,N/A,,Overcast,160,2012-11-19 18:52:00
1:13 PM,59.2,37.4,44,30.00,10.0,South,11.5,-,N/A,,Mostly Cloudy,170,2012-11-19 19:13:00
1:32 PM,59.9,37.6,44,30.00,10.0,South,6.9,-,N/A,,Scattered Clouds,190,2012-11-19 19:32:00
1:52 PM,59.4,37.4,44,30.00,10.0,SSW,8.1,-,N/A,,Clear,210,2012-11-19 19:52:00
2:13 PM,59.7,37.4,43,30.00,10.0,South,10.4,-,N/A,,Clear,180,2012-11-19 20:13:00
2:32 PM,59.2,37.6,45,30.00,10.0,South,6.9,-,N/A,,Clear,180,2012-11-19 20:32:00
2:52 PM,59.0,37.6,45,30.00,10.0,South,6.9,-,N/A,,Clear,170,2012-11-19 20:52:00
3:13 PM,59.0,37.9,46,30.00,10.0,South,8.1,-,N/A,,Clear,170,2012-11-19 21:13:00
3:32 PM,58.6,37.8,46,30.00,10.0,South,5.8,-,N/A,,Clear,190,2012-11-19 21:32:00
3:52 PM,57.7,38.1,48,30.00,10.0,South,4.6,-,N/A,,Clear,180,2012-11-19 21:52:00
4:13 PM,56.5,38.3,51,30.01,10.0,South,3.5,-,N/A,,Clear,170,2012-11-19 22:13:00
4:32 PM,55.0,38.3,53,30.01,10.0,South,3.5,-,N/A,,Clear,180,2012-11-19 22:32:00
4:52 PM,54.0,37.9,55,30.01,10.0,SSE,3.5,-,N/A,,Clear,150,2012-11-19 22:52:00
5:12 PM,53.1,37.9,57,30.01,10.0,SSE,3.5,-,N/A,,Clear,160,2012-11-19 23:12:00
5:32 PM,50.4,37.4,61,30.02,10.0,Calm,Calm,-,N/A,,Clear,0,2012-11-19 23:32:00
5:52 PM,46.4,36.7,69,30.02,10.0,Calm,Calm,-,N/A,,Clear,0,2012-11-19 23:52:00
6:12 PM,45.7,36.9,71,30.03,10.0,Calm,Calm,-,N/A,,Clear,0,2012-11-20 00:12:00
6:32 PM,46.9,37.2,69,30.03,10.0,Calm,Calm,-,N/A,,Clear,0,2012-11-20 00:32:00
6:52 PM,44.6,36.3,73,30.03,10.0,Calm,Calm,-,N/A,,Clear,0,2012-11-20 00:52:00
7:12 PM,44.1,36.9,76,30.04,10.0,SW,3.5,-,N/A,,Clear,220,2012-11-20 01:12:00
7:32 PM,41.5,35.4,79,30.04,10.0,Calm,Calm,-,N/A,,Clear,0,2012-11-20 01:32:00
7:52 PM,40.3,34.7,80,30.03,10.0,Calm,Calm,-,N/A,,Clear,0,2012-11-20 01:52:00
8:12 PM,39.4,34.7,83,30.04,10.0,Calm,Calm,-,N/A,,Clear,0,2012-11-20 02:12:00
8:32 PM,40.1,35.4,83,30.04,10.0,Calm,Calm,-,N/A,,Clear,0,2012-11-20 02:32:00
8:52 PM,40.8,36.3,84,30.04,10.0,Calm,Calm,-,N/A,,Clear,0,2012-11-20 02:52:00
9:12 PM,39.2,34.7,84,30.04,7.0,Calm,Calm,-,N/A,,Clear,0,2012-11-20 03:12:00
9:32 PM,38.5,34.2,84,30.03,10.0,Calm,Calm,-,N/A,,Clear,0,2012-11-20 03:32:00
9:52 PM,38.5,34.9,87,30.03,10.0,Calm,Calm,-,N/A,,Clear,0,2012-11-20 03:52:00
10:12 PM,36.1,32.4,86,30.03,10.0,Calm,Calm,-,N/A,,Clear,0,2012-11-20 04:12:00
10:32 PM,36.5,33.8,90,30.03,7.0,SW,4.6,-,N/A,,Clear,230,2012-11-20 04:32:00
10:52 PM,34.3,32.0,91,30.04,7.0,Calm,Calm,-,N/A,,Clear,0,2012-11-20 04:52:00
11:12 PM,35.2,32.5,90,30.04,5.0,Calm,Calm,-,N/A,,Clear,0,2012-11-20 05:12:00
11:32 PM,34.9,32.2,90,30.05,7.0,Calm,Calm,-,N/A,,Clear,0,2012-11-20 05:32:00
11:52 PM,34.9,32.4,91,30.06,5.0,SSW,3.5,-,N/A,,Clear,200,2012-11-20 05:52:00